Regional Weather Roundup
Issued by NWS

Home | Current Version | Previous Version | Graphics & Text | Print | Product List | Glossary On
Versions: 1 2 3 4 5 6 7 8 9 10 11 12 13 14 15 16 17 18 19 20 21 22 23 24 25 26 27 28 29 30 31 32 33 34 35 36 37 38 39 40 41 42 43 44 45 46 47 48 49 50
000
ASUS43 KBIS 232210
RWRND

NORTH DAKOTA REGIONAL WEATHER ROUNDUP
NATIONAL WEATHER SERVICE BISMARCK ND
500 PM CDT SUN APR 23 2017

NOTE: "FAIR" INDICATES FEW OR NO CLOUDS BELOW 12,000 FEET WITH NO
SIGNIFICANT WEATHER AND/OR OBSTRUCTIONS TO VISIBILITY.


NDZ001>003-009>011-017-232300-
NORTHWEST NORTH DAKOTA

CITY           SKY/WX    TMP DP  RH WIND       PRES   REMARKS
WILLISTON      CLOUDY    34  27  75 E23G29    29.92F
MINOT          CLOUDY    31  27  85 E18G24    29.99F WCI  19
MINOT AFB      CLOUDY    32  28  86 E24       29.97F WCI  19
$$

NDZ018>021-031>035-040>046-232300-
SOUTHWEST NORTH DAKOTA

CITY           SKY/WX    TMP DP  RH WIND       PRES   REMARKS
BISMARCK       CLOUDY    41  34  76 E18       29.90F
DICKINSON      CLOUDY    37  31  78 E18       29.81F
GARRISON         N/A     30  27  88 E23G31    29.94F WCI  17
HETTINGER ARPT PTSUNNY   47  36  65 NE16      29.79F
$$

NDZ004>008-012>016-024-026-027-054-232300-
NORTHEAST NORTH DAKOTA

CITY           SKY/WX    TMP DP  RH WIND       PRES   REMARKS
GRAND FORKS    LGT SNOW  32  29  88 NE17G24   30.08F VSB 1
GRND FRKS AFB  MIX PCPN  30  28  90 E13       30.08F FOG
DEVILS LAKE    SNOW      28  26  92 E17G28    30.04F VSB 1/2 WCI  16
$$

NDZ022-023-025-028>030-036>039-047>053-232300-
SOUTHEAST NORTH DAKOTA

CITY           SKY/WX    TMP DP  RH WIND       PRES   REMARKS
FARGO          CLOUDY    44  34  67 E20G28    29.96F
JAMESTOWN      CLOUDY    34  30  85 E23G32    29.93F
$$





USA.gov is the U.S. government's official web portal to all federal, state and local government web resources and services.